Stations météo

réclame
Mon MeteoGroup
South Uist Range, Grande-Bretagne (3023): Température de l'air & dewpoint: 18.01.2018 09:00:00 - 24.01.2018 09:00:00 (GMT)South Uist Range, Grande-Bretagne (3023): Vitesse du vent & gusts: 18.01.2018 09:00:00 - 24.01.2018 09:00:00 (GMT)South Uist Range, Grande-Bretagne (3023): Direction du vent: 18.01.2018 09:00:00 - 24.01.2018 09:00:00 (GMT)South Uist Range, Grande-Bretagne (3023): reduced air pressure: 18.01.2018 09:00:00 - 24.01.2018 09:00:00 (GMT)South Uist Range, Grande-Bretagne (3023): visibility: 18.01.2018 09:00:00 - 24.01.2018 09:00:00 (GMT)South Uist Range, Grande-Bretagne (3023): Quantités de précipitations: 18.01.2018 09:00:00 - 24.01.2018 09:00:00 (GMT)
Date & Time tt [°C] td [°C] ff [km/h] ff [knt] fx [km/h] fx [knt] dd ppp [hPa] vv [km] rr [mm]
24.01.2018 09:00:00 6,4 5,9 91 49 124 67 NNW 968,3 4,6 0,8
24.01.2018 08:00:00 6,6 5,6 78 42 137 74 WSW 966,3 7 0,6
24.01.2018 07:00:00 6,0 4,5 91 49 120 65 SW 965,7 4,0 0,4
24.01.2018 06:00:00 7,2 4,2 63 34 96 52 SSW 969,9 11 0,2
24.01.2018 05:00:00 5,5 3,8 50 27 89 48 S 972,2 15 0,6
24.01.2018 04:00:00 7,9 6,8 46 25 72 39 S 974,1 13 0,4
24.01.2018 03:00:00 5,4 4,4 50 27 65 35 SE 977,1 6 0,2
24.01.2018 02:00:00 5,9 4,6 35 19 54 29 S 982,1 8 1,0
24.01.2018 01:00:00 7,0 5,7 31 17 46 25 S 985,2 12 0,2
24.01.2018 00:00:00 7,0 5,0 28 15 - - S 988,1 15 0,0
23.01.2018 23:00:00 5,6 4,0 18 10 - - S 990,2 16 0,0
23.01.2018 22:00:00 6,7 4,2 29 16 57 31 SSW 991,8 12 0,2
23.01.2018 21:00:00 7,0 3,8 34 18 55 30 SW 993,0 13 0,0
23.01.2018 20:00:00 7,1 3,7 39 21 55 30 WSW 992,9 15 0,0
23.01.2018 19:00:00 7,1 3,1 46 25 63 34 WSW 992,6 18 0,0
23.01.2018 18:00:00 6,6 3,7 50 27 68 37 WSW 992,2 18 0,0
23.01.2018 17:00:00 6,6 3,9 48 26 96 52 WSW 991,5 16 0,4
23.01.2018 16:00:00 7,6 5,2 44 24 61 33 SW 991,1 17 0,0
23.01.2018 15:00:00 6,4 5,5 29 16 70 38 WSW 990,9 12 1,6
23.01.2018 14:00:00 8,8 6,4 35 19 48 26 SW 991,4 11 0,0
23.01.2018 13:00:00 8,8 6,4 37 20 52 28 WSW 991,7 13 0,0
23.01.2018 12:00:00 8,8 7,1 31 17 70 38 WSW 991,9 12 0,6
23.01.2018 11:00:00 8,5 7,7 37 20 - - SW 991,7 12 0,0
23.01.2018 10:00:00 6,9 6,4 18 10 54 29 W 991,1 8 3,6
23.01.2018 09:00:00 7,8 7,5 29 16 50 27 S 991,6 6 2,4
23.01.2018 08:00:00 8,6 8,5 37 20 50 27 SSW 991,7 5 1,4
23.01.2018 07:00:00 8,5 8,4 26 14 - - SSW 993,2 4,8 0,0
23.01.2018 06:00:00 8,5 8,4 29 16 - - SSW 993,9 2,1 0,0
23.01.2018 05:00:00 8,6 8,4 31 17 52 28 SSW 994,9 7 0,2
23.01.2018 04:00:00 8,8 8,5 44 24 63 34 SSW 995,7 10 0,0
23.01.2018 03:00:00 8,7 8,5 46 25 72 39 SSW 996,0 6 0,0
23.01.2018 02:00:00 8,3 8,1 46 25 67 36 S 996,6 5 0,6
23.01.2018 01:00:00 8,0 7,7 48 26 65 35 S 997,6 6 2,6
23.01.2018 00:00:00 8,0 7,5 46 25 67 36 S 998,5 3,5 0,6
22.01.2018 23:00:00 8,5 7,7 50 27 67 36 SSW 999,5 4,2 0,2
22.01.2018 22:00:00 8,7 7,7 48 26 67 36 SSW 1000,1 8 0,0
22.01.2018 21:00:00 8,5 7,6 44 24 57 31 SSW 1001,0 6 0,0
22.01.2018 20:00:00 8,0 7,1 31 17 - - SSW 1001,9 10 0,0
22.01.2018 19:00:00 7,9 6,5 28 15 48 26 SSW 1003,0 8 0,0
22.01.2018 18:00:00 7,7 6,0 24 13 - - SW 1003,6 8 0,0
22.01.2018 17:00:00 8,1 5,4 28 15 - - WSW 1003,8 13 0,0
22.01.2018 16:00:00 8,0 5,9 31 17 - - WSW 1003,7 12 0,0
22.01.2018 15:00:00 8,1 5,7 31 17 48 26 W 1003,2 13 0,0
22.01.2018 14:00:00 8,4 5,4 39 21 55 30 W 1002,7 13 0,0
22.01.2018 13:00:00 8,3 5,8 34 18 63 34 W 1002,4 10 0,0
22.01.2018 12:00:00 8,0 5,0 37 20 61 33 W 1002,0 10 0,0
22.01.2018 11:00:00 8,0 5,1 37 20 57 31 W 1000,8 12 0,0
22.01.2018 10:00:00 7,8 4,9 44 24 63 34 W 999,7 12 0,2
22.01.2018 09:00:00 8,1 5,1 44 24 63 34 W 999,0 7 0,0
22.01.2018 08:00:00 8,0 5,5 44 24 63 34 W 998,1 10 0,0
22.01.2018 07:00:00 7,6 5,4 46 25 65 35 W 997,4 11 0,2
22.01.2018 06:00:00 8,0 5,1 42 23 61 33 W 996,6 13 0,2
22.01.2018 05:00:00 7,9 5,4 37 20 63 34 W 996,0 11 0,0
22.01.2018 04:00:00 6,9 4,9 42 23 63 34 W 995,7 11 0,2
22.01.2018 03:00:00 6,3 4,8 46 25 67 36 W 995,2 9 0,2
22.01.2018 02:00:00 7,5 5,2 37 20 65 35 W 994,8 14 0,2
22.01.2018 01:00:00 7,1 4,9 42 23 61 33 WSW 994,8 15 0,0
22.01.2018 00:00:00 7,0 5,2 35 19 80 43 W 994,5 13 0,2
21.01.2018 23:00:00 7,0 4,6 44 24 68 37 W 994,4 15 0,0
21.01.2018 22:00:00 7,9 5,5 37 20 74 40 W 994,2 11 0,2
21.01.2018 21:00:00 8,1 5,3 42 23 54 29 W 993,6 11 0,0
21.01.2018 20:00:00 8,1 5,4 42 23 65 35 W 993,1 11 0,0
21.01.2018 19:00:00 8,3 5,8 39 21 70 38 W 992,4 11 0,0
21.01.2018 18:00:00 8,2 6,6 39 21 63 34 W 991,7 10 0,0
21.01.2018 17:00:00 8,3 7,0 48 26 70 38 W 990,9 10 1,4
21.01.2018 16:00:00 6,6 6,3 48 26 76 41 S 989,9 1,3 1,0
21.01.2018 15:00:00 5,1 4,4 59 32 93 50 S 991,0 2,2 0,2
21.01.2018 14:00:00 4,2 3,1 68 37 100 54 SSE 992,5 5 0,2
21.01.2018 13:00:00 3,9 2,7 68 37 91 49 SSE 994,1 5 0,4
21.01.2018 12:00:00 3,1 1,9 50 27 68 37 SSE 997,0 8 0,2
21.01.2018 11:00:00 2,6 1,2 42 23 67 36 SE 999,3 5 0,2
21.01.2018 10:00:00 2,8 0,6 41 22 65 35 SE 1001,2 15 0,2
21.01.2018 09:00:00 3,8 0,6 39 21 67 36 SE 1002,1 18 0,0
21.01.2018 08:00:00 3,4 1,0 34 18 52 28 SSE 1003,6 24 0,0
21.01.2018 07:00:00 3,7 1,2 34 18 46 25 SSE 1004,1 29 0,0
21.01.2018 06:00:00 3,7 0,8 34 18 - - SSE 1004,8 30 0,0
21.01.2018 05:00:00 3,2 0,0 24 13 - - SE 1006,4 30 0,0
21.01.2018 04:00:00 3,2 -0,1 24 13 - - SE 1007,4 29 0,0
21.01.2018 03:00:00 2,7 -0,5 16 9 - - SSE 1008,2 30 0,0
21.01.2018 02:00:00 2,7 -1,2 16 9 - - SSE 1008,6 30 0,0
21.01.2018 01:00:00 1,9 -1,2 16 9 - - ESE 1009,0 28 0,0
21.01.2018 00:00:00 0,8 -1,6 13 7 - - N 1008,7 30 0,0
20.01.2018 23:00:00 0,8 -1,5 11 6 - - N 1008,7 30 0,0
20.01.2018 22:00:00 0,3 -1,6 8 4 - - E 1008,6 28 0,0
20.01.2018 21:00:00 -0,6 -1,5 8 4 - - SE 1008,1 27 0,0
20.01.2018 20:00:00 -0,9 -2,2 8 4 - - SE 1007,5 27 0,0
20.01.2018 19:00:00 -0,4 -1,5 4 2 - - E 1007,2 27 0,0
20.01.2018 18:00:00 1,0 -0,1 2 1 - - ESE 1006,2 26 0,0
20.01.2018 17:00:00 1,2 0,0 4 2 - - E 1005,2 28 0,0
20.01.2018 16:00:00 2,9 0,3 9 5 - - N 1004,1 28 0,2
20.01.2018 15:00:00 4,3 1,1 4 2 - - N 1003,0 27 0,0
20.01.2018 14:00:00 4,8 1,5 4 2 - - N 1002,1 26 0,2
20.01.2018 13:00:00 3,7 1,6 9 5 - - SSW 1001,1 28 1,6
20.01.2018 12:00:00 3,5 1,7 5 3 - - W 1000,3 7 0,0
20.01.2018 11:00:00 1,6 0,6 5 3 - - SSW 999,5 27 0,0
20.01.2018 10:00:00 0,2 -0,5 15 8 - - S 998,8 30 0,0
20.01.2018 09:00:00 1,3 0,1 5 3 - - N 998,3 30 0,0
20.01.2018 08:00:00 1,4 0,4 15 8 - - ESE 997,5 26 0,0
20.01.2018 07:00:00 0,8 0,2 15 8 - - S 997,1 23 0,0
20.01.2018 06:00:00 -0,2 -0,8 15 8 - - S 996,8 24 0,0
20.01.2018 05:00:00 1,7 0,8 16 9 - - WSW 996,7 22 0,0
20.01.2018 04:00:00 0,6 0,2 11 6 - - E 996,8 26 0,2
20.01.2018 03:00:00 0,5 0,1 9 5 - - ESE 997,2 26 0,2
20.01.2018 02:00:00 0,6 0,0 11 6 - - ESE 997,3 21 0,2
20.01.2018 01:00:00 1,0 0,3 8 4 - - E 997,3 25 0,0
20.01.2018 00:00:00 1,7 0,0 15 8 - - N 997,2 15 -
19.01.2018 23:00:00 0,9 0,2 9 5 - - N 996,7 23 0,2
19.01.2018 22:00:00 1,3 0,0 21 11 - - N 996,8 8 0,6
19.01.2018 21:00:00 2,9 0,7 21 11 - - W 996,5 23 0,0
19.01.2018 20:00:00 1,8 0,5 18 10 - - W 996,2 22 0,2
19.01.2018 19:00:00 3,3 0,5 28 15 - - W 996,5 24 0,0
19.01.2018 18:00:00 3,1 1,1 31 17 57 31 WSW 996,2 21 0,0
19.01.2018 17:00:00 3,2 0,4 41 22 65 35 WNW 996,3 10 0,0
19.01.2018 16:00:00 4,4 -2,1 35 19 52 28 WNW 996,0 25 0,0
19.01.2018 15:00:00 4,7 -0,7 29 16 48 26 NW 995,9 22 0,0
19.01.2018 14:00:00 4,0 -0,2 34 18 - - W 995,6 25 0,0
19.01.2018 13:00:00 2,4 0,6 35 19 50 27 W 995,9 15 0,2
19.01.2018 12:00:00 3,1 0,1 37 20 63 34 NW 995,6 25 0,0
19.01.2018 11:00:00 4,1 0,0 29 16 - - W 995,3 23 0,0
19.01.2018 10:00:00 3,0 0,0 24 13 50 27 W 995,2 24 0,8
19.01.2018 09:00:00 0,8 0,2 21 11 50 27 WSW 995,4 11 0,0
19.01.2018 08:00:00 2,1 0,2 18 10 - - W 994,7 21 0,2
19.01.2018 07:00:00 2,0 0,7 15 8 68 37 NNW 994,7 13 0,4
19.01.2018 06:00:00 2,4 0,4 16 9 46 25 NW 994,6 18 0,2
19.01.2018 05:00:00 2,5 0,7 39 21 57 31 W 995,5 12 0,0
19.01.2018 04:00:00 1,4 0,4 54 29 80 43 W 995,7 4,1 0,2
19.01.2018 03:00:00 2,9 -0,6 29 16 61 33 W 995,5 25 0,0
19.01.2018 02:00:00 3,8 0,2 34 18 48 26 W 995,3 13 0,0
19.01.2018 01:00:00 2,8 0,5 24 13 - - W 995,8 28 0,4
19.01.2018 00:00:00 2,3 0,4 24 13 50 27 W 996,2 18 0,4
18.01.2018 23:00:00 2,8 -0,1 26 14 46 25 W 995,9 11 0,2
18.01.2018 22:00:00 3,2 -0,7 29 16 50 27 W 995,9 23 0,0
18.01.2018 21:00:00 4,3 -1,0 34 18 46 25 W 995,7 23 0,0
18.01.2018 20:00:00 4,0 0,2 34 18 - - W 995,7 24 0,0
18.01.2018 19:00:00 1,7 0,1 39 21 72 39 WNW 996,2 5 0,4
18.01.2018 18:00:00 3,8 1,1 28 15 46 25 WSW 995,1 24 0,0
18.01.2018 17:00:00 4,8 -0,5 29 16 - - W 995,2 23 0,0
18.01.2018 16:00:00 4,4 1,6 18 10 - - WNW 994,8 18 0,2
18.01.2018 15:00:00 4,7 -0,1 29 16 - - WNW 994,7 23 0,0
18.01.2018 14:00:00 3,4 0,5 28 15 46 25 WNW 994,6 5 0,2
18.01.2018 13:00:00 5,0 0,8 28 15 - - WNW 994,2 24 0,0
18.01.2018 12:00:00 4,4 1,0 22 12 - - NW 993,9 23 0,0
18.01.2018 11:00:00 2,8 2,1 4 2 - - NNE 993,4 21 0,4
18.01.2018 10:00:00 2,4 0,4 22 12 - - N 992,8 21 0,0
18.01.2018 09:00:00 4,8 0,3 28 15 - - WNW 992,1 23 0,0

tt = Température de l'air
td = dewpoint
ff = Vitesse du vent
fx = gusts
dd = Direction du vent
ppp = reduced air pressure
vv = visibility
rr = Quantités de précipitations

stations d'obs. à proximité